Terug naar catalogus

OPS 4682 DEB

ActiefPO
NORAD 18533·DEBRIS·🇺🇸 United States

Gelanceerd Apr 3, 1965 vanaf Vandenberg Space Force Base

Loading…

Volgende Passages (komende 24 uur)

TLE

VersSource: Space-Track

Epoch: Sep 14, 2026, 07:36 UTC

1 18533U 65027AD  26257.31698821  .00000276  00000-0  94419-3 0  9995
2 18533  90.2462   8.3239 0025388 246.2797 139.1315 12.96138474905656

Volg OPS 4682 DEB in realtime met AllMySat

Download on the App Store